Home   Weather   Yuzhno-Sakhalinsk   Past weeks

Flag for Russia Past Weather in Yuzhno-Sakhalinsk, Russia — Yesterday and Last 2 Weeks

Now
36 °F

Passing clouds.


Feels Like: 33 °F
Forecast: 26 / 52 °F
Wind: 3 mph from Southeast

Location: Yuzhno Airport-Sakhalinsk

Current Time: Apr 24, 2017 at 10:54:48 pm

Latest Report: Apr 24, 2017 at 10:00 pm


Visibility: N/A

Pressure: 30.24 "Hg

Humidity: 75%

Dew Point: 28 °F

Location of Yuzhno-SakhalinskLocation

Past Weather in Yuzhno-Sakhalinsk — Graph

°F

Yuzhno-Sakhalinsk Temperature Yesterday

Maximum temperature yesterday: 41 °F (at 4:30 pm)
Minimum temperature yesterday: 30 °F (at 5:00 am)
Average temperature yesterday: 36 °F

High & Low Weather Summary for the Past Weeks

 TemperatureHumidityPressure
High54 °F (Apr 16, 3:30 pm)100% (Apr 12, 6:30 am)30.27 "Hg (Apr 12, 6:30 am)
Low21 °F (Apr 22, 6:30 am)29% (Apr 17, 5:30 pm)29.24 "Hg (Apr 12, 2:30 pm)
Average36 °F74%29.71 "Hg
* Reported Apr 9 9:00 pm — Apr 24 9:30 pm, Yuzhno-Sakhalinsk, Weather by CustomWeather, © 2017

Note: Actual official high and low records may vary slightly from our data, if they occured in-between our weather recording intervals... More about our weather records

Advertising

Yuzhno-Sakhalinsk Weather History for the Previous 24 Hours

Scroll right to see more
 ConditionsComfort  
Time TempWeatherWind HumidityBarometerVisibility
9:30 pm
Mon, Apr 24
34 °FPassing clouds.6 mph81%30.24 "HgN/A
9:00 pm34 °FClear.3 mph81%30.24 "HgN/A
8:30 pm34 °FClear.8 mph81%30.24 "HgN/A
8:00 pm37 °FClear.10 mph70%30.21 "HgN/A
7:30 pm37 °FClear.10 mph70%30.21 "HgN/A
7:00 pm41 °FClear.10 mph61%30.21 "HgN/A
6:30 pm43 °FClear.13 mph57%30.21 "HgN/A
6:00 pm43 °FClear.13 mph53%30.21 "HgN/A
5:30 pm43 °FClear.10 mph53%30.21 "HgN/A
5:00 pm43 °FClear.8 mph57%30.21 "HgN/A
4:30 pm41 °FClear.8 mph61%30.24 "HgN/A
4:00 pm39 °FScattered clouds.10 mph65%30.24 "HgN/A
3:30 pm39 °FScattered clouds.8 mph70%30.27 "HgN/A
2:30 pm39 °FScattered clouds.13 mph70%30.27 "HgN/A
1:30 pm41 °FPassing clouds.13 mph66%30.24 "HgN/A
1:00 pm43 °FPassing clouds.10 mph66%30.27 "HgN/A
12:30 pm43 °FPassing clouds.8 mph66%30.27 "HgN/A
12:00 pm43 °FPassing clouds.8 mph66%30.27 "HgN/A
11:30 am41 °FPassing clouds.6 mph70%30.27 "HgN/A
11:00 am41 °FPassing clouds.6 mph70%30.27 "HgN/A
10:30 am39 °FPassing clouds.3 mph75%30.27 "HgN/A
10:00 am37 °FPassing clouds.3 mph81%30.27 "HgN/A
9:30 am37 °FPassing clouds.No wind81%30.27 "HgN/A
9:00 am34 °FPassing clouds.1 mph93%30.27 "HgN/A
8:30 am34 °FClear.No wind93%30.27 "HgN/A
7:30 am28 °FClear.No wind100%30.27 "HgN/A
7:00 am25 °FClear.No wind100%30.27 "HgN/A
6:30 am25 °FClear.No wind100%30.27 "HgN/A
6:00 am27 °FClear.No wind100%30.24 "HgN/A
5:00 am28 °FClear.No wind93%30.24 "HgN/A
4:00 am30 °FClear.No wind93%30.24 "HgN/A
3:00 am32 °FClear.3 mph93%30.24 "HgN/A
2:00 am32 °FClear.No wind87%30.21 "HgN/A
1:00 am32 °FClear.No wind87%30.21 "HgN/A
12:00 am34 °FClear.No wind87%30.21 "HgN/A
11:00 pm
Sun, Apr 23
34 °FClear.No wind81%30.21 "HgN/A
10:00 pm36 °FPassing clouds.1 mph75%30.18 "HgN/A
Weather by CustomWeather, © 2017

See weather overviewHow to use our weather pages